Starlink 1593

operational
NORAD ID: 46119 Int'l Des: 2020-057 Owner: SPXS Country: US Constellation: starlink
LEOCIRCULARSTARLINK_TYPE

Starlink 1593について

説明を読み込み中...

リアルタイム位置

3D地球を読み込み中...

次回通過

高度履歴

Altitude vs Time

uPlot chart will show altitude changes over time

軌道要素

1 46119U 20057C 26034.66668981 .00188110 00000-0 21014-2 0 9999
2 46119 53.0477 78.2651 0004486 310.7093 147.7511 15.61639387 5946
Epoch: Feb 3, 2026 • Age: 13 hours

現在のステータス

高度 398.5 km
速度 7.67 km/s
衛星直下点 -53.13°S, 139.85°E
打ち上げ日 Aug 18, 2020
運用期間 5.4 years
タイプ internet

技術仕様

分類 Payload
質量 260.00 kg
乾燥質量 248.00 kg
総質量 260.00 kg
長さ 0.20 m
直径 2.80 m
スパン 9.00 m
形状 Box + pan
製造者 SPXS
バスタイプ Starlink
フェーズステータス In Orbit
所有者/国 SPXS/US

大規模コンステレーション

Loading constellations...